Location: Drocourt
(49.0571°N, 1.7669°E)
Time: 23:49:40
(UTC+00:00)

SR - Pass Details

Date: 20 April 2024
Orbit: 579 x 859 km, 66.7° (Epoch: 25 May)

Event Time Altitude Azimuth Distance (km) Brightness Sun altitude
Rises 04:54:42 0° 287° (WNW) 3,237 ? -0.3°
Reaches altitude 10° 04:58:44 10° 317° (NW) 2,239 ? 0.3°
Maximum altitude 05:00:50 12° 341° (NNW) 2,040 ? 0.7°
Drops below altitude 10° 05:02:52 10° 6° (N) 2,162 ? 1.0°
Sets 05:06:36 0° 37° (NE) 3,008 ? 1.6°
